Weather History for Fort Myers Airport, FL

Change the Weather History Date:

Thursday, April 17, 2014

  Actual Average Record
Temperature  
Mean Temperature 76 °F -  
Max Temperature 87 °F 83 °F 94 °F (1944)
Min Temperature 66 °F 62 °F 45 °F (1962)
Cooling Degree Days 11    
Growing Degree Days 26 (Base 50)    
Moisture  
Dew Point 67 °F    
Average Humidity 82    
Maximum Humidity 97    
Minimum Humidity 55    
Precipitation  
Precipitation 0.49 in - - ()
Sea Level Pressure  
Sea Level Pressure 30.09 in    
Wind  
Wind Speed 10 mph (ENE)    
Max Wind Speed 23 mph    
Max Gust Speed 34 mph    
Visibility 9 miles    
Events Rain , Thunderstorm    
Averages and records for this station are not official NWS values.
T = Trace of Precipitation, MM = Missing Value Source: NWS Daily Summary

Daily Weather History Graph

Daily Weather History Graph

Search for Another Location

Airport:

Trip Planner

Search our weather history database for the weather conditions in past years. The results will help you decide how hot, cold, wet, or windy it might be!

Date:

Astronomy

Apr. 17, 2014 Rise Set
Actual Time 7:01 AM EDT 7:52 PM EDT
Civil Twilight 6:37 AM EDT 8:15 PM EDT
Nautical Twilight 6:09 AM EDT 8:43 PM EDT
Astronomical Twilight 5:41 AM EDT 9:12 PM EDT
Moon 10:25 PM EDT (4/17) 8:41 AM EDT (4/17)
Length of Visible Light 13h 38m
Length of Day
12h 50m
Waning Gibbous, 94% of the Moon is Illuminated
Apr 17
Waning Gibbous
Apr 22
Last Quarter
Apr 29
New
May 6
First Quarter
May 14
Full

Hourly Weather History & Observations

Time (EDT) Temp. Heat Index Dew Point Humidity Pressure Visibility Wind Dir Wind Speed Gust Speed Precip Events Conditions
12:53 AM 70.0 °F - 62.1 °F 76% 30.09 in 10.0 mi ENE 10.4 mph - N/A   Overcast
1:53 AM 69.1 °F - 62.1 °F 78% 30.08 in 10.0 mi NE 6.9 mph - N/A   Scattered Clouds
2:13 AM 69.1 °F - 62.1 °F 78% 30.08 in 10.0 mi NE 8.1 mph - N/A   Mostly Cloudy
2:26 AM 69.1 °F - 62.1 °F 78% 30.07 in 10.0 mi NE 8.1 mph - N/A   Mostly Cloudy
2:53 AM 68.0 °F - 62.1 °F 81% 30.06 in 10.0 mi NE 9.2 mph - N/A   Mostly Cloudy
3:26 AM 68.0 °F - 63.0 °F 84% 30.07 in 10.0 mi NE 6.9 mph - N/A   Mostly Cloudy
3:53 AM 68.0 °F - 63.0 °F 84% 30.05 in 10.0 mi NE 8.1 mph - N/A   Scattered Clouds
4:53 AM 66.9 °F - 63.0 °F 87% 30.06 in 10.0 mi NNE 4.6 mph - N/A   Clear
5:53 AM 66.9 °F - 63.0 °F 87% 30.07 in 10.0 mi NE 4.6 mph - N/A   Mostly Cloudy
6:31 AM 66.9 °F - 63.0 °F 87% 30.09 in 10.0 mi ENE 4.6 mph - N/A   Overcast
6:53 AM 66.9 °F - 64.0 °F 90% 30.09 in 10.0 mi NNE 4.6 mph - N/A   Mostly Cloudy
7:53 AM 68.0 °F - 64.9 °F 90% 30.11 in 10.0 mi ENE 5.8 mph - N/A   Mostly Cloudy
8:53 AM 73.0 °F - 66.9 °F 81% 30.11 in 10.0 mi East 12.7 mph - N/A   Clear
9:53 AM 77.0 °F - 68.0 °F 74% 30.13 in 10.0 mi ENE 13.8 mph - N/A   Scattered Clouds
10:11 AM 77.0 °F - 68.0 °F 74% 30.13 in 10.0 mi ENE 13.8 mph - N/A   Mostly Cloudy
10:45 AM 81.0 °F 83.8 °F 68.0 °F 65% 30.14 in 10.0 mi East 13.8 mph - N/A   Scattered Clouds
10:53 AM 80.1 °F 82.9 °F 69.1 °F 69% 30.14 in 10.0 mi East 12.7 mph - N/A   Partly Cloudy
11:45 AM 82.0 °F 85.5 °F 69.1 °F 65% 30.14 in 10.0 mi East 10.4 mph - N/A   Mostly Cloudy
11:53 AM 82.4 °F 86.3 °F 69.8 °F 66% 30.14 in 10.0 mi East 11.5 mph - N/A   Mostly Cloudy
12:18 PM 82.9 °F 85.8 °F 68.0 °F 60% 30.13 in 10.0 mi East 10.4 mph - N/A   Overcast
12:53 PM 84.2 °F 87.3 °F 68.0 °F 58% 30.12 in 10.0 mi East 6.9 mph - N/A   Scattered Clouds
1:53 PM 84.9 °F 88.2 °F 68.0 °F 57% 30.09 in 10.0 mi ENE 11.5 mph - N/A   Mostly Cloudy
2:53 PM 86.0 °F 89.4 °F 68.0 °F 55% 30.06 in 10.0 mi ENE 15.0 mph - N/A   Mostly Cloudy
3:53 PM 84.9 °F 88.2 °F 68.0 °F 57% 30.04 in 10.0 mi East 23.0 mph 29.9 mph N/A   Mostly Cloudy
4:10 PM 73.9 °F - 64.9 °F 73% 30.06 in 10.0 mi SE 23.0 mph 29.9 mph 0.00 in Rain , Thunderstorm Light Rain
4:17 PM 72.0 °F - 64.9 °F 78% 30.07 in 10.0 mi ESE 23.0 mph 34.5 mph 0.00 in Rain , Thunderstorm Light Thunderstorms and Rain
4:33 PM 70.0 °F - 66.9 °F 90% 30.09 in 1.8 mi ESE 20.7 mph 31.1 mph 0.09 in Rain , Thunderstorm Thunderstorms and Rain
4:44 PM 70.0 °F - 66.9 °F 90% 30.09 in 1.0 mi ESE 12.7 mph - 0.31 in Rain , Thunderstorm Heavy Rain
4:53 PM 70.0 °F - 68.0 °F 93% 30.08 in 1.5 mi ESE 10.4 mph - 0.40 in Rain , Thunderstorm Heavy Rain
5:01 PM 70.0 °F - 68.0 °F 93% 30.08 in 2.0 mi ESE 11.5 mph - 0.03 in Rain Rain
5:11 PM 70.0 °F - 68.0 °F 93% 30.07 in 4.0 mi East 13.8 mph - 0.05 in Rain Light Rain
5:53 PM 69.1 °F - 66.0 °F 90% 30.06 in 7.0 mi East 9.2 mph - 0.08 in Rain Light Rain
6:53 PM 71.1 °F - 69.1 °F 93% 30.07 in 10.0 mi ENE 12.7 mph - 0.01 in Rain Light Rain
7:49 PM 71.6 °F - 69.8 °F 94% 30.08 in 10.0 mi ENE 9.2 mph - 0.00 in   Scattered Clouds
7:53 PM 72.0 °F - 70.0 °F 93% 30.08 in 10.0 mi ENE 9.2 mph - 0.00 in   Mostly Cloudy
8:20 PM 72.0 °F - 70.0 °F 93% 30.09 in 10.0 mi East 10.4 mph - N/A   Mostly Cloudy
8:33 PM 72.0 °F - 71.1 °F 97% 30.09 in 10.0 mi East 10.4 mph - N/A   Partly Cloudy
8:53 PM 73.0 °F - 71.1 °F 93% 30.09 in 10.0 mi ENE 8.1 mph - N/A   Mostly Cloudy
9:04 PM 73.0 °F - 71.1 °F 93% 30.10 in 10.0 mi ENE 9.2 mph - N/A   Mostly Cloudy
9:32 PM 73.0 °F - 70.0 °F 90% 30.11 in 10.0 mi ENE 10.4 mph - N/A   Overcast
9:46 PM 73.0 °F - 70.0 °F 90% 30.11 in 10.0 mi ENE 9.2 mph - N/A   Overcast
9:53 PM 73.0 °F - 70.0 °F 90% 30.10 in 10.0 mi ENE 10.4 mph - N/A   Overcast
10:28 PM 73.0 °F - 70.0 °F 90% 30.11 in 10.0 mi ENE 11.5 mph - N/A   Overcast
10:46 PM 72.0 °F - 70.0 °F 93% 30.11 in 10.0 mi ENE 12.7 mph - N/A   Overcast
10:53 PM 72.0 °F - 70.0 °F 93% 30.11 in 10.0 mi ENE 11.5 mph - N/A   Overcast
11:53 PM 72.0 °F - 70.0 °F 93% 30.10 in 10.0 mi East 12.7 mph - N/A   Mostly Cloudy